Hourly Data Report for September 04, 2017

All times are specified in Local Standard Time (LST). Add 1 hour to adjust for Daylight Saving Time where and when it is observed.

KUGLUKTUK A
NUNAVUT

67°49'00.000" N
115°08'38.000" W
22.60 m
2300903
71938
YCO

Download Data

Hourly Data (September 2017)
Hourly Data Report for September 4, 2017
Temp Definition
°C
Dew Point Temp Definition
°C
Rel Hum Definition
%
Wind Dir Definition
10's deg

Wind Spd Definition
km/h
Visibility Definition
km
Stn Press Definition
kPa
Hmdx Definition


Wind Chill Definition


Weather Definition


TIME
00:00 Legend Double Dagger 4.8 4.1 95 27 14 19.3 101.73     LegendNANA
01:00 Legend Double Dagger 4.1 3.6 96 28 13 19.3 101.80     LegendNANA
02:00 Legend Double Dagger 4.0 3.2 94 27 12 19.3 101.86     Mostly Cloudy
03:00 Legend Double Dagger 3.1 2.5 96 26 19 19.3 101.89     LegendNANA
04:00 Legend Double Dagger 2.3 2.0 97 26 18 24.1 101.92     LegendNANA
05:00 Legend Double Dagger 3.0 2.5 97 25 15 24.1 101.97     Mostly Cloudy
06:00 Legend Double Dagger 2.0 1.7 98 22 8 24.1 101.96     LegendNANA
07:00 Legend Double Dagger 2.7 2.6 99 23 12 24.1 102.00     LegendNANA
08:00 Legend Double Dagger 4.4 3.6 94 30 5 24.1 102.00     Mainly Clear
09:00 Legend Double Dagger 6.1 4.6 90 25 8 24.1 101.98     LegendNANA
10:00 Legend Double Dagger 6.5 4.7 88 26 12 24.1 101.98     LegendNANA
11:00 Legend Double Dagger 7.6 5.4 86 24 8 24.1 101.95     Cloudy
12:00 Legend Double Dagger 9.9 5.3 73 23 15 56.3 101.92     LegendNANA
13:00 Legend Double Dagger 10.9 4.8 66 25 12 24.1 101.89     LegendNANA
14:00 Legend Double Dagger 11.5 4.9 64 22 8 24.1 101.86     Cloudy
15:00 Legend Double Dagger 11.9 4.9 62 26 7 24.1 101.84     LegendNANA
16:00 Legend Double Dagger 10.6 6.4 75 6 7 24.1 101.80     LegendNANA
17:00 Legend Double Dagger 10.2 7.1 81 11 12 24.1 101.75     Cloudy
18:00 Legend Double Dagger 10.4 7.0 79 11 12 24.1 101.69     LegendNANA
19:00 Legend Double Dagger 9.5 6.2 79 13 10 24.1 101.65     LegendNANA
20:00 Legend Double Dagger 9.2 5.4 77 15 13 24.1 101.59     Cloudy
21:00 Legend Double Dagger 7.7 5.0 83 19 13 24.1 101.59     LegendNANA
22:00 Legend Double Dagger 7.6 4.8 83 16 12 24.1 101.53     LegendNANA
23:00 Legend Double Dagger 7.8 4.4 79 14 12 24.1 101.49     Mostly Cloudy

Notes on Data Quality.

Legend

  • E = Estimated
  • M = Missing
  • NA = Not Available
  • ‡ = Partner data that is not subject to review by the National Climate Archives
Date modified: